TimeEDT,TemperatureF,Dew PointF,Humidity,Sea Level PressureIn,VisibilityMPH,Wind Direction,Wind SpeedMPH,Gust SpeedMPH,PrecipitationIn,Events,Conditions,WindDirDegrees,DateUTC
12:27 AM,69.8,64.4,83,30.05,10.0,ESE,6.9,-,N/A,,Overcast,110,2013-08-30 04:27:00
12:51 AM,70.0,63.0,78,30.05,10.0,SE,6.9,-,N/A,,Overcast,130,2013-08-30 04:51:00
1:51 AM,69.1,63.0,81,30.02,10.0,ESE,9.2,-,N/A,,Overcast,120,2013-08-30 05:51:00
2:51 AM,69.1,63.0,81,30.02,10.0,SE,6.9,-,N/A,,Overcast,130,2013-08-30 06:51:00
3:51 AM,69.1,63.0,81,30.02,10.0,SSE,5.8,-,N/A,,Overcast,160,2013-08-30 07:51:00
4:51 AM,69.1,63.0,81,30.01,10.0,SSE,5.8,-,N/A,,Overcast,150,2013-08-30 08:51:00
5:51 AM,69.1,64.0,84,30.02,10.0,South,5.8,-,N/A,,Overcast,180,2013-08-30 09:51:00
6:34 AM,69.8,64.4,83,30.02,10.0,South,8.1,-,N/A,,Overcast,180,2013-08-30 10:34:00
6:51 AM,70.0,64.0,81,30.03,10.0,South,4.6,-,N/A,,Overcast,190,2013-08-30 10:51:00
7:30 AM,69.8,64.4,83,30.04,10.0,SW,9.2,-,N/A,,Overcast,230,2013-08-30 11:30:00
7:51 AM,70.0,64.9,84,30.03,10.0,WSW,9.2,-,N/A,,Overcast,250,2013-08-30 11:51:00
8:51 AM,71.1,64.9,81,30.03,10.0,SW,8.1,-,N/A,,Overcast,220,2013-08-30 12:51:00
9:51 AM,72.0,64.9,78,30.02,10.0,SW,9.2,-,N/A,,Mostly Cloudy,220,2013-08-30 13:51:00
10:51 AM,75.0,66.0,73,30.01,10.0,SW,10.4,-,N/A,,Mostly Cloudy,230,2013-08-30 14:51:00
11:45 AM,78.8,66.2,65,29.99,10.0,SW,13.8,-,N/A,,Mostly Cloudy,230,2013-08-30 15:45:00
11:51 AM,78.1,66.9,68,29.99,10.0,SW,13.8,-,N/A,,Mostly Cloudy,220,2013-08-30 15:51:00
12:51 PM,80.1,66.9,64,29.96,10.0,WSW,13.8,-,N/A,,Mostly Cloudy,240,2013-08-30 16:51:00
1:51 PM,82.0,66.0,58,29.95,10.0,SW,16.1,-,N/A,,Scattered Clouds,230,2013-08-30 17:51:00
2:51 PM,81.0,66.9,62,29.93,10.0,SSW,13.8,-,N/A,,Scattered Clouds,200,2013-08-30 18:51:00
3:51 PM,82.0,68.0,62,29.91,10.0,South,12.7,-,N/A,,Scattered Clouds,180,2013-08-30 19:51:00
4:51 PM,80.1,69.1,69,29.91,10.0,South,13.8,-,N/A,,Mostly Cloudy,190,2013-08-30 20:51:00
5:51 PM,79.0,69.1,72,29.89,10.0,South,12.7,-,N/A,,Mostly Cloudy,190,2013-08-30 21:51:00
6:51 PM,80.1,69.1,69,29.88,10.0,SW,12.7,-,N/A,,Mostly Cloudy,230,2013-08-30 22:51:00
7:51 PM,78.1,69.1,74,29.88,9.0,SW,11.5,-,N/A,,Mostly Cloudy,220,2013-08-30 23:51:00
8:51 PM,77.0,69.1,76,29.89,9.0,SW,15.0,-,N/A,,Mostly Cloudy,220,2013-08-31 00:51:00
9:51 PM,75.9,69.1,79,29.90,10.0,SW,12.7,-,N/A,,Mostly Cloudy,220,2013-08-31 01:51:00
10:51 PM,75.0,69.1,82,29.91,10.0,SW,12.7,-,N/A,,Mostly Cloudy,220,2013-08-31 02:51:00
11:51 PM,73.9,69.1,85,29.90,10.0,SW,10.4,-,N/A,,Mostly Cloudy,220,2013-08-31 03:51:00